Starlink 35335

operational
NORAD ID: 66181 Int'l Des: 2025-243 Owner: SPXS Country: US Constellation: starlink
LEOCIRCULAR

Über Starlink 35335

Beschreibung wird geladen...

Live-Position

3D-Globus wird geladen...

Nächste Überflüge

Höhenverlauf

Altitude vs Time

uPlot chart will show altitude changes over time

Zweizeiliger Elementsatz

1 66181C 25243D 25299.73659722 .00785630 00000+0 12863-2 0 2999
2 66181 53.1580 157.0689 0008929 275.3683 23.9708 16.01654337 10
Epoch: 26. Okt. 2025 • Age: 122 hours

Aktueller Status

Höhe 260.4 km
Geschwindigkeit 7.75 km/s
Subsatellitenpunkt -51.84°S, 9.44°W
Startdatum 26. Okt. 2025
Alter 5 days
Typ internet

Technische Details

Klassifizierung Payload
Masse 575.00 kg
Trockenmasse 530.00 kg
Gesamtmasse 575.00 kg
Länge 0.30 m
Durchmesser 4.10 m
Spannweite 29.00 m
Form Box + pan
Hersteller SPXS
Bus-Typ Starlink V2MO
Phasenstatus In Orbit
Besitzer/Staat SPXS/US

Große Konstellationen

Loading constellations...